CGH1126 ZGDY-ZPPP

Flight info

Callsign CGH1126
Flight time 1h 19m
Altitude 30100
Route K0867S1100 DCT DYG W140 HUY A581 QNX W136 XISLI XIS2J
Aircraft A320/M-SDE3FGHIRWY/LB1

Departure

Time 2026-05-09 08:25
Airport Zhangjiajie Hehua International Airport (ZGDY)

Arrival

Time 2026-05-09 09:44
Airport Kunming Changshui International Airport (ZPPP)
Time Latitude Longitude Altitude Speed Heading
2026-05-09 08:12 29.10675 110.44234 666 ft 0 kts 256°
2026-05-09 08:14 29.10675 110.44235 698 ft 1 kts 256°
2026-05-09 08:15 29.10679 110.44252 700 ft 2 kts 256°
2026-05-09 08:15 29.10683 110.44270 702 ft 2 kts 245°
2026-05-09 08:15 29.10688 110.44281 701 ft 2 kts 231°
2026-05-09 08:15 29.10701 110.44291 698 ft 2 kts 172°
2026-05-09 08:16 29.10703 110.44291 701 ft 0 kts 167°
2026-05-09 08:17 29.10698 110.44293 704 ft 2 kts 166°
2026-05-09 08:17 29.10666 110.44301 703 ft 7 kts 166°
2026-05-09 08:17 29.10609 110.44318 702 ft 10 kts 165°
2026-05-09 08:17 29.10550 110.44320 707 ft 6 kts 208°
2026-05-09 08:18 29.10521 110.44289 708 ft 5 kts 220°
2026-05-09 08:18 29.10490 110.44277 701 ft 5 kts 180°
2026-05-09 08:18 29.10459 110.44296 705 ft 8 kts 125°
2026-05-09 08:18 29.10467 110.44400 705 ft 18 kts 74°
2026-05-09 08:19 29.10504 110.44562 695 ft 24 kts 75°
2026-05-09 08:19 29.10544 110.44729 698 ft 20 kts 73°
2026-05-09 08:19 29.10581 110.44869 691 ft 17 kts 75°
2026-05-09 08:19 29.10608 110.44992 690 ft 16 kts 76°
2026-05-09 08:20 29.10637 110.45129 691 ft 20 kts 76°
2026-05-09 08:20 29.10676 110.45299 682 ft 24 kts 75°
2026-05-09 08:20 29.10723 110.45501 682 ft 27 kts 75°
2026-05-09 08:20 29.10723 110.45600 680 ft 2 kts 148°
2026-05-09 08:21 29.10714 110.45604 683 ft 3 kts 161°
2026-05-09 08:21 29.10644 110.45628 685 ft 14 kts 169°
2026-05-09 08:21 29.10554 110.45527 688 ft 33 kts 254°
2026-05-09 08:21 29.10456 110.45062 693 ft 87 kts 255°
2026-05-09 08:22 29.10261 110.44210 703 ft 133 kts 255°
2026-05-09 08:22 29.09986 110.43034 927 ft 162 kts 253°
2026-05-09 08:22 29.09642 110.41741 1384 ft 177 kts 253°
2026-05-09 08:22 29.09161 110.40404 1835 ft 190 kts 245°
2026-05-09 08:23 29.08564 110.39039 2484 ft 193 kts 243°
2026-05-09 08:23 29.07889 110.37648 2861 ft 213 kts 240°
2026-05-09 08:23 29.07068 110.36070 2984 ft 246 kts 239°
2026-05-09 08:23 29.06155 110.34375 3651 ft 257 kts 239°
2026-05-09 08:24 29.05202 110.32635 4564 ft 259 kts 238°
2026-05-09 08:24 29.04236 110.30873 5378 ft 265 kts 239°
2026-05-09 08:24 29.03245 110.29075 6196 ft 269 kts 239°
2026-05-09 08:24 29.02241 110.27237 6954 ft 273 kts 240°
2026-05-09 08:25 29.01247 110.25405 7696 ft 277 kts 240°
2026-05-09 08:25 29.00226 110.23519 8492 ft 278 kts 240°
2026-05-09 08:25 28.99196 110.21607 9211 ft 283 kts 240°
2026-05-09 08:25 28.98179 110.19714 10026 ft 283 kts 240°
2026-05-09 08:26 28.97127 110.17752 10387 ft 299 kts 240°
2026-05-09 08:26 28.96001 110.15643 10654 ft 320 kts 240°
2026-05-09 08:26 28.94810 110.13415 11027 ft 338 kts 240°
2026-05-09 08:26 28.93548 110.11068 11437 ft 354 kts 240°
2026-05-09 08:27 28.92234 110.08623 11875 ft 367 kts 240°
2026-05-09 08:27 28.90890 110.06131 12630 ft 370 kts 240°
2026-05-09 08:27 28.89544 110.03639 13387 ft 372 kts 240°
2026-05-09 08:27 28.88173 110.01103 14104 ft 374 kts 240°
2026-05-09 08:28 28.86803 109.98572 14728 ft 377 kts 240°
2026-05-09 08:28 28.85420 109.96012 15326 ft 381 kts 240°
2026-05-09 08:28 28.84033 109.93446 15962 ft 383 kts 241°
2026-05-09 08:28 28.82634 109.90858 16522 ft 387 kts 241°
2026-05-09 08:29 28.81220 109.88242 17141 ft 389 kts 241°
2026-05-09 08:29 28.79779 109.85575 17727 ft 392 kts 241°
2026-05-09 08:29 28.78350 109.82935 18289 ft 395 kts 241°
2026-05-09 08:29 28.76905 109.80266 18779 ft 398 kts 241°
2026-05-09 08:30 28.75441 109.77566 19270 ft 399 kts 241°
2026-05-09 08:30 28.73981 109.74877 19804 ft 401 kts 241°
2026-05-09 08:30 28.72516 109.72180 20297 ft 402 kts 241°
2026-05-09 08:30 28.71024 109.69442 20792 ft 404 kts 241°
2026-05-09 08:31 28.69549 109.66730 21235 ft 406 kts 242°
2026-05-09 08:31 28.68045 109.63965 21723 ft 408 kts 242°
2026-05-09 08:31 28.66551 109.61216 22182 ft 410 kts 242°
2026-05-09 08:31 28.65057 109.58461 22561 ft 413 kts 242°
2026-05-09 08:32 28.63549 109.55695 23034 ft 414 kts 242°
2026-05-09 08:32 28.62027 109.52900 23440 ft 416 kts 242°
2026-05-09 08:32 28.59010 109.47234 24184 ft 418 kts 244°
2026-05-09 08:33 28.57609 109.44308 24537 ft 419 kts 245°
2026-05-09 08:33 28.56266 109.41375 24884 ft 419 kts 246°
2026-05-09 08:33 28.54949 109.38427 25250 ft 420 kts 247°
2026-05-09 08:33 28.53648 109.35470 25594 ft 421 kts 247°
2026-05-09 08:34 28.52336 109.32461 25961 ft 422 kts 247°
2026-05-09 08:34 28.51044 109.29481 26302 ft 424 kts 247°
2026-05-09 08:34 28.49732 109.26448 26709 ft 423 kts 248°
2026-05-09 08:34 28.48451 109.23484 27209 ft 420 kts 248°
2026-05-09 08:35 28.47157 109.20488 27690 ft 417 kts 248°
2026-05-09 08:35 28.45885 109.17548 28171 ft 415 kts 248°
2026-05-09 08:35 28.44615 109.14656 28961 ft 404 kts 248°
2026-05-09 08:35 28.43367 109.11844 29603 ft 384 kts 248°
2026-05-09 08:36 28.42191 109.09208 29954 ft 374 kts 248°
2026-05-09 08:36 28.41011 109.06546 30111 ft 379 kts 248°
2026-05-09 08:36 28.39824 109.03859 30179 ft 387 kts 248°
2026-05-09 08:37 28.37354 108.98266 30232 ft 397 kts 248°
2026-05-09 08:37 28.34893 108.92742 30247 ft 391 kts 248°
2026-05-09 08:38 28.32430 108.87227 30241 ft 389 kts 248°
2026-05-09 08:38 28.30002 108.81781 30254 ft 388 kts 248°
2026-05-09 08:39 28.27555 108.76292 30238 ft 388 kts 248°
2026-05-09 08:39 28.25117 108.70835 30185 ft 388 kts 248°
2026-05-09 08:40 28.22683 108.65395 30161 ft 387 kts 248°
2026-05-09 08:40 28.20250 108.59960 30161 ft 387 kts 248°
2026-05-09 08:41 28.17799 108.54500 30157 ft 387 kts 248°
2026-05-09 08:41 28.15361 108.49074 30162 ft 387 kts 248°
2026-05-09 08:42 28.12916 108.43649 30159 ft 385 kts 248°
2026-05-09 08:42 28.10498 108.38275 30159 ft 387 kts 248°
2026-05-09 08:43 28.08036 108.32827 30184 ft 388 kts 248°
2026-05-09 08:43 28.05586 108.27404 30170 ft 386 kts 248°
2026-05-09 08:44 28.03148 108.22014 30183 ft 385 kts 248°
2026-05-09 08:44 28.00716 108.16637 30160 ft 386 kts 248°
2026-05-09 08:45 27.98241 108.11185 30175 ft 387 kts 247°
2026-05-09 08:45 27.95799 108.05807 30159 ft 386 kts 247°
2026-05-09 08:46 27.93345 108.00416 30182 ft 386 kts 247°
2026-05-09 08:46 27.90897 107.95047 30194 ft 384 kts 247°
2026-05-09 08:47 27.88440 107.89656 30193 ft 384 kts 247°
2026-05-09 08:47 27.86000 107.84304 30174 ft 385 kts 247°
2026-05-09 08:48 27.83545 107.78909 30191 ft 387 kts 248°
2026-05-09 08:48 27.81116 107.73504 30186 ft 384 kts 248°
2026-05-09 08:49 27.78707 107.68122 30212 ft 385 kts 248°
2026-05-09 08:49 27.76291 107.62721 30209 ft 384 kts 248°
2026-05-09 08:50 27.73878 107.57325 30219 ft 385 kts 248°
2026-05-09 08:50 27.71458 107.51917 30221 ft 385 kts 248°
2026-05-09 08:51 27.69047 107.46541 30216 ft 384 kts 248°
2026-05-09 08:51 27.66643 107.41178 30225 ft 385 kts 248°
2026-05-09 08:52 27.64221 107.35784 30226 ft 384 kts 248°
2026-05-09 08:52 27.61799 107.30400 30234 ft 384 kts 247°
2026-05-09 08:53 27.59391 107.25055 30235 ft 383 kts 247°
2026-05-09 08:53 27.56974 107.19691 30237 ft 384 kts 247°
2026-05-09 08:54 27.54555 107.14331 30234 ft 384 kts 247°
2026-05-09 08:54 27.52128 107.08956 30234 ft 384 kts 247°
2026-05-09 08:55 27.49709 107.03603 30244 ft 385 kts 247°
2026-05-09 08:55 27.47296 106.98247 30245 ft 384 kts 247°
2026-05-09 08:56 27.44889 106.92876 30243 ft 383 kts 247°
2026-05-09 08:56 27.42497 106.87530 30253 ft 382 kts 247°
2026-05-09 08:57 27.40108 106.82189 30254 ft 383 kts 247°
2026-05-09 08:57 27.37707 106.76829 30253 ft 383 kts 247°
2026-05-09 08:58 27.35301 106.71489 30254 ft 384 kts 246°
2026-05-09 08:58 27.32877 106.66122 30253 ft 383 kts 246°
2026-05-09 08:59 27.30474 106.60805 30258 ft 383 kts 246°
2026-05-09 08:59 27.28053 106.55451 30219 ft 382 kts 246°
2026-05-09 09:00 27.25642 106.50137 30229 ft 384 kts 246°
2026-05-09 09:00 27.23207 106.44774 30238 ft 384 kts 246°
2026-05-09 09:01 27.20793 106.39457 30258 ft 383 kts 246°
2026-05-09 09:01 27.18377 106.34149 30260 ft 381 kts 246°
2026-05-09 09:02 27.15959 106.28820 30250 ft 386 kts 246°
2026-05-09 09:02 27.13527 106.23485 30220 ft 383 kts 246°
2026-05-09 09:03 27.11503 106.19048 30230 ft 382 kts 246°
2026-05-09 09:03 27.09076 106.13734 30234 ft 384 kts 246°
2026-05-09 09:04 27.06633 106.08390 30240 ft 384 kts 246°
2026-05-09 09:04 27.04702 106.02834 30266 ft 380 kts 255°
2026-05-09 09:05 27.03368 105.97132 30314 ft 382 kts 257°
2026-05-09 09:05 27.02138 105.91301 30318 ft 382 kts 257°
2026-05-09 09:06 27.00975 105.85521 30313 ft 381 kts 258°
2026-05-09 09:06 26.99828 105.79706 30312 ft 383 kts 258°
2026-05-09 09:07 26.98688 105.73848 30324 ft 383 kts 258°
2026-05-09 09:07 26.97559 105.68014 30315 ft 383 kts 258°
2026-05-09 09:08 26.96431 105.62191 30312 ft 384 kts 258°
2026-05-09 09:08 26.95298 105.56349 30302 ft 383 kts 258°
2026-05-09 09:09 26.94168 105.50498 30295 ft 383 kts 258°
2026-05-09 09:09 26.93036 105.44659 30299 ft 384 kts 258°
2026-05-09 09:10 26.91901 105.38812 30302 ft 382 kts 258°
2026-05-09 09:10 26.90770 105.32989 30288 ft 383 kts 257°
2026-05-09 09:11 26.89633 105.27170 30291 ft 384 kts 257°
2026-05-09 09:11 26.88486 105.21307 30291 ft 386 kts 257°
2026-05-09 09:12 26.87336 105.15435 30293 ft 385 kts 257°
2026-05-09 09:12 26.86191 105.09588 30292 ft 385 kts 257°
2026-05-09 09:13 26.85042 105.03751 30289 ft 385 kts 257°
2026-05-09 09:13 26.83888 104.97912 30285 ft 385 kts 257°
2026-05-09 09:14 26.82721 104.92012 30300 ft 388 kts 257°
2026-05-09 09:14 26.81553 104.86116 30298 ft 385 kts 257°
2026-05-09 09:15 26.80394 104.80287 30301 ft 386 kts 257°
2026-05-09 09:15 26.79220 104.74413 30305 ft 387 kts 257°
2026-05-09 09:16 26.78039 104.68535 30323 ft 389 kts 257°
2026-05-09 09:16 26.76301 104.62852 30342 ft 390 kts 236°
2026-05-09 09:16 26.74475 104.60544 30336 ft 395 kts 229°
2026-05-09 09:17 26.70423 104.56329 30332 ft 399 kts 226°
2026-05-09 09:17 26.66238 104.52288 30336 ft 397 kts 225°
2026-05-09 09:18 26.62010 104.48323 30338 ft 398 kts 224°
2026-05-09 09:18 26.57731 104.44375 30341 ft 399 kts 224°
2026-05-09 09:19 26.53459 104.40456 30341 ft 399 kts 223°
2026-05-09 09:19 26.49149 104.36523 30337 ft 399 kts 223°
2026-05-09 09:20 26.44840 104.32609 30329 ft 397 kts 223°
2026-05-09 09:20 26.40531 104.28702 30349 ft 401 kts 223°
2026-05-09 09:21 26.36213 104.24794 30355 ft 400 kts 223°
2026-05-09 09:21 26.31872 104.20870 30358 ft 400 kts 223°
2026-05-09 09:22 26.27548 104.16968 30354 ft 402 kts 223°
2026-05-09 09:22 26.23214 104.13062 30361 ft 402 kts 223°
2026-05-09 09:23 26.18865 104.09146 30356 ft 401 kts 223°
2026-05-09 09:23 26.14545 104.05261 30043 ft 396 kts 223°
2026-05-09 09:24 26.12413 104.03348 29508 ft 385 kts 223°
2026-05-09 09:24 26.10366 104.01514 28790 ft 380 kts 223°
2026-05-09 09:24 26.08292 103.99651 27902 ft 380 kts 223°
2026-05-09 09:24 26.06239 103.97802 27056 ft 380 kts 223°
2026-05-09 09:25 26.04188 103.95956 26236 ft 380 kts 223°
2026-05-09 09:25 26.02133 103.94109 25431 ft 380 kts 222°
2026-05-09 09:25 26.00111 103.92231 24684 ft 378 kts 227°
2026-05-09 09:25 25.98327 103.90113 24063 ft 372 kts 232°
2026-05-09 09:26 25.96722 103.87924 23411 ft 367 kts 234°
2026-05-09 09:26 25.95176 103.85648 22713 ft 363 kts 236°
2026-05-09 09:26 25.93724 103.83396 22082 ft 358 kts 237°
2026-05-09 09:26 25.92330 103.81152 21485 ft 353 kts 238°
2026-05-09 09:27 25.90973 103.78909 20925 ft 347 kts 239°
2026-05-09 09:27 25.89596 103.76747 20454 ft 342 kts 232°
2026-05-09 09:27 25.87931 103.74857 20126 ft 337 kts 226°
2026-05-09 09:27 25.86177 103.73115 19805 ft 343 kts 224°
2026-05-09 09:28 25.84327 103.71403 19482 ft 347 kts 223°
2026-05-09 09:28 25.82448 103.69745 19158 ft 346 kts 222°
2026-05-09 09:28 25.80556 103.68131 18851 ft 344 kts 221°
2026-05-09 09:28 25.78621 103.66518 18540 ft 344 kts 220°
2026-05-09 09:29 25.76721 103.64959 18199 ft 344 kts 220°
2026-05-09 09:29 25.74773 103.63379 17837 ft 342 kts 220°
2026-05-09 09:29 25.72870 103.61850 17486 ft 340 kts 219°
2026-05-09 09:29 25.70941 103.60307 17133 ft 338 kts 219°
2026-05-09 09:30 25.69042 103.58797 16826 ft 338 kts 219°
2026-05-09 09:30 25.67125 103.57277 16502 ft 337 kts 219°
2026-05-09 09:30 25.65236 103.55783 16188 ft 335 kts 219°
2026-05-09 09:30 25.63352 103.54296 15869 ft 334 kts 219°
2026-05-09 09:31 25.61444 103.52789 15573 ft 334 kts 218°
2026-05-09 09:31 25.59556 103.51299 15292 ft 332 kts 218°
2026-05-09 09:31 25.57677 103.49817 15014 ft 331 kts 218°
2026-05-09 09:32 25.53925 103.46868 14482 ft 329 kts 218°
2026-05-09 09:32 25.52281 103.45191 14275 ft 315 kts 237°
2026-05-09 09:32 25.51455 103.43045 14100 ft 296 kts 261°
2026-05-09 09:32 25.51200 103.40862 13915 ft 284 kts 263°
2026-05-09 09:33 25.50916 103.38742 13736 ft 273 kts 262°
2026-05-09 09:33 25.50618 103.36689 13535 ft 263 kts 261°
2026-05-09 09:33 25.50328 103.34722 13351 ft 254 kts 261°
2026-05-09 09:33 25.50051 103.32847 13178 ft 246 kts 261°
2026-05-09 09:34 25.49775 103.31004 13010 ft 243 kts 261°
2026-05-09 09:34 25.49493 103.29138 12839 ft 245 kts 261°
2026-05-09 09:34 25.49031 103.27339 12689 ft 246 kts 240°
2026-05-09 09:36 25.39378 103.19525 11616 ft 243 kts 217°
2026-05-09 09:36 25.38053 103.18456 11455 ft 231 kts 218°
2026-05-09 09:36 25.36819 103.17417 11305 ft 220 kts 219°
2026-05-09 09:37 25.35614 103.16374 11149 ft 219 kts 220°
2026-05-09 09:37 25.34398 103.15303 11012 ft 223 kts 220°
2026-05-09 09:37 25.33196 103.14239 10881 ft 221 kts 220°
2026-05-09 09:37 25.32050 103.13231 10748 ft 202 kts 220°
2026-05-09 09:38 25.30998 103.12310 10636 ft 183 kts 219°
2026-05-09 09:38 25.30048 103.11481 10521 ft 169 kts 220°
2026-05-09 09:38 25.29138 103.10690 10418 ft 164 kts 220°
2026-05-09 09:38 25.28282 103.09940 10328 ft 151 kts 220°
2026-05-09 09:39 25.27472 103.09225 10242 ft 153 kts 220°
2026-05-09 09:39 25.26626 103.08473 10148 ft 155 kts 220°
2026-05-09 09:39 25.25793 103.07744 10049 ft 153 kts 220°
2026-05-09 09:39 25.24951 103.07006 9960 ft 154 kts 220°
2026-05-09 09:40 25.24104 103.06287 9852 ft 158 kts 218°
2026-05-09 09:40 25.23247 103.05543 9642 ft 153 kts 220°
2026-05-09 09:40 25.22436 103.04805 9441 ft 152 kts 220°
2026-05-09 09:40 25.21606 103.04072 9255 ft 154 kts 219°
2026-05-09 09:41 25.20760 103.03343 9055 ft 151 kts 219°
2026-05-09 09:41 25.19930 103.02619 8855 ft 154 kts 219°
2026-05-09 09:41 25.19114 103.01902 8658 ft 149 kts 219°
2026-05-09 09:41 25.18291 103.01184 8456 ft 153 kts 218°
2026-05-09 09:42 25.17456 103.00462 8269 ft 152 kts 218°
2026-05-09 09:42 25.16639 102.99749 8091 ft 149 kts 218°
2026-05-09 09:42 25.15822 102.99035 7903 ft 153 kts 218°
2026-05-09 09:42 25.15033 102.98337 7638 ft 149 kts 217°
2026-05-09 09:43 25.14205 102.97632 7362 ft 152 kts 218°
2026-05-09 09:43 25.13390 102.96914 7178 ft 149 kts 218°
2026-05-09 09:43 25.12564 102.96196 7035 ft 149 kts 218°
2026-05-09 09:43 25.11746 102.95473 6922 ft 153 kts 218°
2026-05-09 09:44 25.10943 102.94775 6897 ft 124 kts 218°
2026-05-09 09:44 25.10361 102.94277 6898 ft 90 kts 217°
2026-05-09 09:44 25.10055 102.93964 6896 ft 43 kts 239°
2026-05-09 09:44 25.09975 102.93782 6897 ft 21 kts 247°
2026-05-09 09:45 25.09921 102.93631 6896 ft 18 kts 285°
2026-05-09 09:45 25.09901 102.93513 6897 ft 17 kts 220°
2026-05-09 09:45 25.09799 102.93422 6897 ft 20 kts 218°
2026-05-09 09:45 25.09745 102.93285 6897 ft 21 kts 261°
2026-05-09 09:46 25.09734 102.93179 6897 ft 0 kts 263°